Location: Derby
(52.9213°N, 1.4761°W)
Time: 16:55:59
(UTC+01:00)

A-11 Canister half - Pass Details

Date: 21 May 2025
Orbit: 1524 x 1684 km, 47.3° (Epoch: 14 June)

Event Time Altitude Azimuth Distance (km) Brightness Sun altitude
Rises 23:54:53 0° 275° (W) 4,760 11.9 -15.4°
Reaches altitude 10° 23:57:59 10° 271° (W) 3,796 11.3 -15.6°
Maximum altitude 00:07:21 57° 197° (SSW) 1,871 9.1 -15.9°
Drops below altitude 10° 00:17:00 10° 122° (ESE) 3,909 10.7 -16.2°
Sets 00:20:15 0° 119° (ESE) 4,910 11.3 -16.3°
